Temperature
23 23 22 23 23 24 24 24 23 24 25 26 26 26 26 26 26 26 26 26 25 25 24 23 22 21 20 20 19 19 18 17 17 16 16 15 15 15 15 14 14 14 13 13
23 23 24 25 24 24 23 23 24 24 26 26 26 26 27 27 27 26 26 26 26 25 24 22 22 21 20 20 19 18 18 17 16 16 15 15 15 15 14 14 14 14 13 13
24 24 25 24 24 24 23 24 24 24 25 27 26 26 26 27 27 27 26 26 26 25 24 22 22 21 20 19 19 18 17 17 16 16 15 15 15 15 14 14 14 13 13 13
23 24 25 24 24 24 23 24 25 25 25 25 26 25 26 27 26 26 26 26 25 25 24 23 22 21 20 19 18 18 17 17 16 16 15 15 14 14 14 14 14 13 13 13
22 24 24 24 24 25 24 25 26 26 25 25 26 26 26 26 26 26 26 26 25 25 24 23 22 21 20 19 18 18 17 16 16 15 15 15 14 14 14 14 14 13 13 13
24 25 25 25 26 26 26 26 26 26 25 24 26 25 25 26 26 26 26 26 25 25 24 23 22 21 20 19 18 17 17 16 16 15 15 15 14 14 14 14 14 14 13 13
24 25 26 26 26 26 26 25 24 24 23 24 26 26 26 26 27 27 27 26 25 24 23 22 21 20 19 19 18 17 17 16 16 15 15 15 15 14 14 14 14 14 13 13
24 24 26 27 26 26 26 26 23 22 23 25 26 26 26 27 27 27 27 26 25 24 23 22 21 20 19 18 18 17 16 16 15 15 15 15 15 14 14 14 14 14 14 13
25 25 27 27 28 27 26 26 26 25 25 25 26 27 27 27 27 27 26 26 25 24 23 22 21 20 19 18 18 17 16 16 16 15 15 15 15 14 14 14 14 14 14 14
26 25 26 27 27 27 27 27 26 25 24 24 25 26 25 26 26 26 26 26 25 24 23 22 21 20 19 18 18 17 17 16 16 15 15 15 15 14 14 14 14 14 14 14
27 26 26 26 26 26 27 26 26 26 25 24 24 25 27 27 27 27 26 26 25 24 24 23 21 20 19 19 18 17 17 16 16 15 15 15 15 14 14 14 14 14 14 14
27 26 25 26 28 28 27 27 26 25 25 25 24 25 28 27 27 27 27 26 25 24 24 22 21 21 20 19 18 17 17 16 16 16 15 15 15 15 14 14 14 14 14 14
26 26 25 25 26 26 26 27 27 26 25 25 24 25 27 27 27 27 27 26 25 24 23 22 21 21 20 19 18 18 17 17 16 16 15 15 15 15 14 14 14 14 14 14
25 26 25 24 25 26 26 26 26 26 24 25 25 26 27 27 27 27 27 26 25 24 24 23 22 21 20 19 19 18 18 17 16 16 15 15 15 15 14 14 14 14 14 14
26 25 26 26 27 27 26 26 26 26 26 25 25 26 26 27 27 27 27 26 25 25 24 23 22 21 20 19 19 18 18 17 17 16 16 16 15 15 15 14 14 14 14 14
26 26 26 26 27 27 26 27 26 26 26 26 26 26 27 27 27 27 26 26 25 24 24 23 22 21 20 20 19 19 18 18 17 16 16 16 15 15 15 14 14 14 14 14
26 25 25 25 26 26 25 27 27 26 27 26 25 26 27 27 26 26 26 25 25 24 24 23 22 22 21 20 19 19 18 18 17 17 16 16 15 15 15 14 14 14 14 14
25 25 25 24 25 24 26 28 27 26 26 27 26 26 26 26 26 26 25 25 25 24 23 23 22 22 21 21 20 19 19 18 17 17 17 16 15 15 15 14 14 14 14 14
26 25 24 24 24 25 26 27 27 26 25 26 26 26 26 26 26 25 25 24 24 24 23 23 22 22 22 21 21 20 19 18 18 17 17 16 16 15 15 15 14 14 14 14
25 25 24 23 23 23 25 26 26 26 24 26 26 25 25 25 23 24 24 24 23 23 23 22 22 22 22 21 21 20 19 19 18 17 17 16 16 15 15 15 15 14 14 14
24 24 23 23 23 24 25 25 26 24 23 25 25 24 24 24 23 23 23 23 23 22 22 22 21 21 21 21 20 20 19 19 18 18 17 16 16 16 15 15 15 14 14 14
24 24 23 23 23 23 24 25 24 23 24 24 23 23 23 23 22 22 22 22 22 22 21 21 21 21 21 20 20 20 19 19 18 18 17 16 16 16 15 15 15 14 14 14
24 24 23 24 23 23 23 23 22 22 22 22 22 21 21 21 22 22 21 21 21 21 21 21 20 20 20 20 20 19 19 19 18 18 17 16 16 16 15 15 15 14 14 14
23 24 23 23 23 23 22 22 21 21 21 20 20 20 20 20 20 21 21 21 20 20 20 20 19 19 19 19 19 19 19 19 18 17 17 16 16 15 15 15 15 14 14 14
21 22 21 21 22 22 22 21 20 20 19 19 19 19 19 19 19 20 20 20 20 20 19 19 19 19 19 19 19 18 18 18 18 17 17 16 16 15 15 15 14 14 14 14
20 20 20 20 21 21 20 19 19 18 18 18 18 18 18 18 18 18 19 19 19 19 19 19 18 18 18 18 18 18 18 18 17 17 16 16 16 15 15 15 14 14 14 14
Wind_Speed
10 8 8 10 11 7 3 3 4 3 5 7 8 7 7 9 10 9 8 9 9 8 9 10 9 7 5 4 4 5 4 4 3 3 2 2 2 2 2 2 3 4 4 4
10 11 11 9 6 6 4 6 5 1 3 5 7 8 6 8 9 7 6 6 5 7 9 10 9 8 5 5 4 4 4 4 5 3 1 0 1 2 1 1 2 3 4 4
10 7 9 6 6 6 6 5 2 2 6 8 8 8 7 7 7 8 6 3 2 6 8 11 9 8 6 6 5 3 4 4 5 3 1 2 1 2 1 1 1 2 3 2
2 2 6 7 6 5 4 3 3 4 6 5 5 4 4 6 7 8 7 6 5 6 7 10 9 8 7 7 5 4 4 3 5 3 3 1 1 2 2 2 1 2 2 2
4 5 7 7 6 5 2 3 5 6 6 8 8 6 2 7 7 8 7 6 5 7 8 9 9 8 7 7 6 3 4 3 4 3 2 1 1 2 2 2 2 2 1 2
3 5 5 4 3 3 2 5 8 8 6 7 6 4 1 3 5 6 7 8 7 7 8 8 9 8 7 8 6 4 4 4 4 1 2 2 1 1 2 2 2 3 2 1
5 6 5 3 5 6 6 6 3 2 3 3 2 2 1 6 6 4 4 6 8 8 8 8 9 8 8 8 6 5 5 5 4 2 2 2 2 1 1 2 2 3 2 1
5 7 8 6 5 3 6 5 3 3 3 3 2 2 5 8 6 5 4 5 7 8 8 8 9 9 8 8 7 6 5 5 4 3 1 0 2 1 0 1 2 2 2 1
1 3 6 5 4 4 3 4 4 4 7 6 2 2 7 8 7 6 5 6 6 7 8 9 9 9 9 9 8 6 6 5 5 3 2 1 0 1 1 2 2 2 2 2
2 4 6 4 4 6 6 6 4 3 4 4 3 2 3 6 6 6 6 7 7 7 8 9 9 9 9 8 8 7 6 5 5 4 3 2 1 1 0 2 2 3 3 2
5 2 5 7 6 7 7 6 5 4 5 4 3 2 3 5 4 2 3 5 6 8 7 8 9 9 9 9 8 8 7 6 5 4 3 3 2 1 2 1 1 2 3 2
3 4 4 7 5 2 5 6 5 4 5 5 5 1 4 5 3 2 2 4 5 6 7 8 9 9 8 9 8 8 7 7 6 4 3 2 3 3 2 1 1 2 2 2
8 4 3 1 2 3 5 6 6 6 6 6 6 1 3 3 3 4 4 4 6 7 7 8 8 9 9 8 8 8 7 7 7 5 3 3 3 2 1 1 1 2 2 2
4 8 6 5 4 3 5 6 6 7 7 8 7 6 3 2 1 1 3 4 5 7 8 8 8 9 9 8 8 8 8 7 8 7 5 4 3 3 2 1 1 1 2 2
5 9 10 8 7 8 9 9 8 10 10 11 10 9 7 6 3 1 1 3 4 6 7 9 9 9 9 9 8 8 8 8 8 8 7 5 3 3 2 2 1 1 2 2
6 9 11 12 10 10 12 11 11 11 11 12 11 9 7 5 3 2 2 2 3 4 5 7 9 10 11 11 10 9 8 8 8 8 7 5 3 3 2 2 1 1 1 2
7 10 11 12 11 11 11 9 8 7 8 9 8 6 5 5 4 3 2 0 2 3 4 5 6 8 10 11 11 10 9 9 8 8 7 7 5 4 3 2 2 1 1 0
11 11 8 11 11 12 5 1 2 5 6 7 6 4 5 5 3 1 2 1 1 3 4 4 5 6 8 9 10 10 10 9 9 8 8 8 6 5 4 3 2 2 1 1
10 8 8 9 11 10 6 2 2 4 5 4 4 4 6 7 5 0 3 2 1 0 3 3 4 4 6 8 9 10 10 10 9 8 8 8 8 7 5 5 4 3 2 1
6 7 8 8 10 9 3 3 3 4 3 4 5 6 6 6 4 4 6 3 3 2 1 2 3 3 5 6 8 9 10 10 10 9 9 8 8 7 6 6 4 4 3 3
5 6 8 10 11 7 3 3 2 3 3 7 7 7 7 6 5 6 6 4 2 1 1 1 2 3 3 5 6 8 9 9 9 9 8 7 8 8 7 5 4 4 4 3
8 6 7 7 9 4 5 3 3 5 7 7 8 9 8 8 7 7 6 4 2 1 1 2 2 2 3 5 6 7 8 8 9 9 8 8 8 7 7 6 5 4 4 4
7 6 5 6 3 3 4 5 6 7 7 8 9 9 9 9 8 6 5 4 3 2 2 3 3 3 3 5 6 7 7 8 9 9 9 8 8 6 6 7 6 4 4 3
10 9 9 9 6 5 5 6 6 7 8 9 9 10 10 10 10 8 6 4 4 3 3 3 4 4 5 5 5 6 7 8 9 10 9 8 8 7 6 5 4 3 2 2
10 11 11 13 11 10 6 5 7 7 8 10 10 10 10 10 11 10 8 6 4 4 3 3 4 5 6 5 6 6 6 8 9 10 10 9 8 7 6 5 3 3 3 3
13 13 12 11 10 10 8 8 8 9 9 10 10 10 10 9 10 10 9 7 6 5 4 4 5 5 6 6 6 6 7 8 9 9 10 8 7 7 7 7 5 7 5 6
Wind_Direction
183 192 199 207 214 224 271 262 247 228 206 234 246 244 211 198 198 200 211 209 196 178 158 143 139 131 135 135 121 107 116 108 95 71 28 23 10 348 17 9 32 1 349 354
177 203 204 204 210 235 257 255 254 330 277 260 254 255 227 202 195 197 212 209 188 162 145 138 141 141 153 137 123 118 109 96 94 93 17 42 26 324 18 8 18 355 3 5
186 193 190 189 200 219 249 256 298 288 269 254 255 252 233 187 183 177 186 186 187 153 154 152 152 145 148 137 130 123 111 110 104 119 71 24 9 316 347 2 30 356 1 5
202 239 188 188 210 223 250 253 255 270 284 288 264 274 246 167 168 168 174 186 181 156 154 147 148 149 152 140 127 131 118 111 108 101 79 356 336 342 354 11 14 342 2 1
188 190 200 204 202 213 225 248 272 264 268 281 273 276 215 154 170 169 170 177 169 158 150 143 145 144 144 130 124 125 116 104 97 89 125 264 339 355 355 349 359 335 332 314
164 189 203 202 185 202 244 253 253 249 257 263 262 282 295 141 134 143 156 164 160 151 141 140 138 136 135 125 128 134 130 115 114 160 205 188 113 358 330 325 344 322 308 310
165 186 177 176 185 192 234 256 278 257 235 247 202 255 116 90 88 104 145 152 151 145 148 148 145 148 141 138 145 157 149 137 143 209 239 161 129 278 306 328 331 317 322 338
170 174 176 192 224 221 226 249 278 309 297 316 242 204 114 109 104 104 112 126 139 148 152 151 150 150 148 152 160 168 156 156 165 210 234 97 127 174 311 318 313 309 314 314
87 139 157 174 224 265 265 248 251 279 290 292 270 125 126 132 137 143 149 153 163 159 154 154 153 156 157 162 167 168 165 172 169 189 199 178 89 101 327 306 305 306 303 318
281 155 166 166 229 239 273 300 295 284 307 302 313 344 107 136 139 151 166 173 173 163 163 160 157 162 163 164 165 167 173 176 166 188 200 168 196 175 239 301 333 325 318 337
305 248 172 180 214 226 217 239 255 273 277 297 318 2 64 98 105 152 166 161 162 162 163 158 157 163 161 160 165 171 177 179 171 187 188 178 163 219 231 239 295 294 298 313
327 297 229 207 198 231 270 277 281 285 300 301 297 331 104 113 125 160 171 161 153 154 157 156 159 162 165 170 175 179 180 174 165 176 183 179 191 204 221 226 262 283 303 312
345 299 292 202 169 201 240 254 275 291 287 280 285 278 152 141 165 177 178 177 160 159 163 161 163 169 172 175 179 179 177 168 161 169 188 208 202 168 193 274 342 319 330 335
304 285 285 280 286 266 255 259 261 268 272 282 287 298 293 304 253 197 173 183 174 168 170 167 168 175 174 176 181 181 175 168 164 165 186 213 203 168 179 140 307 326 337 335
269 285 294 291 283 277 273 268 259 259 269 278 291 300 310 316 319 306 203 186 178 176 175 173 176 181 176 180 184 184 177 174 172 171 186 195 196 165 154 158 183 39 337 334
273 287 291 286 277 276 273 264 259 260 265 271 278 283 298 313 343 333 296 182 179 187 186 182 183 184 181 184 187 183 178 177 174 175 179 167 176 154 158 176 136 82 321 337
278 281 290 290 289 283 273 271 264 266 274 277 278 294 321 323 331 328 328 232 190 191 186 189 195 188 186 187 183 180 177 176 176 175 167 162 173 165 172 168 138 178 216 208
272 282 286 284 285 276 283 304 292 284 287 290 295 317 327 325 309 312 344 296 230 186 174 191 206 193 187 186 177 173 171 172 176 174 165 163 165 167 168 161 168 209 195 171
252 265 272 276 280 277 277 289 300 293 295 314 325 348 354 337 304 288 28 2 345 156 169 180 203 204 193 185 174 170 172 174 174 171 168 167 169 169 170 179 188 192 199 212
232 245 256 269 277 283 314 47 19 306 289 19 8 360 354 343 329 351 6 12 14 36 128 166 195 211 193 179 168 171 176 177 176 172 172 171 165 164 174 187 189 185 189 206
231 235 241 258 269 278 23 49 339 287 24 30 20 9 359 349 350 350 350 5 15 28 102 166 193 207 189 172 169 179 183 182 173 163 164 162 161 168 175 178 182 189 189 197
288 280 262 260 265 276 50 9 353 8 16 12 12 7 357 346 344 346 347 347 339 318 210 204 211 207 187 177 178 189 189 170 153 153 161 167 168 177 175 171 187 196 191 197
271 286 304 298 311 23 26 17 6 359 354 359 356 350 344 334 326 326 330 326 309 272 229 213 225 216 201 194 190 195 180 158 153 158 166 171 173 177 168 170 182 191 195 196
294 312 304 297 299 325 341 350 353 354 353 348 343 339 337 329 323 318 312 301 294 281 248 213 217 222 219 208 202 199 173 162 164 169 174 178 181 175 167 159 161 162 167 179
303 307 295 288 296 306 310 337 341 348 344 335 329 326 327 322 316 314 309 299 287 277 259 229 222 225 227 214 205 195 178 176 180 181 180 184 182 170 157 136 112 138 117 145
273 278 279 283 303 307 320 337 345 338 327 323 322 320 319 316 313 313 310 307 297 284 271 252 237 227 230 223 211 194 188 191 193 190 186 183 175 165 157 144 119 72 104 108
Height
1465 1471 1474 1471 1470 1473 1474 1477 1480 1475 1469 1472 1473 1472 1470 1470 1473 1475 1477 1479 1481 1484 1487 1489 1493 1496 1498 1500 1501 1501 1501 1501 1501 1501 1500 1500 1500 1499 1498 1497 1496 1495 1493 1492
1468 1470 1466 1465 1467 1471 1474 1479 1478 1474 1468 1470 1469 1468 1465 1465 1468 1471 1474 1476 1478 1481 1484 1487 1491 1494 1497 1498 1500 1500 1500 1500 1500 1499 1499 1499 1499 1498 1497 1496 1495 1493 1492 1491
1465 1465 1463 1465 1470 1473 1475 1477 1477 1478 1472 1465 1467 1470 1464 1461 1464 1468 1472 1474 1476 1480 1483 1486 1489 1492 1495 1497 1498 1499 1499 1499 1499 1498 1498 1498 1498 1497 1497 1495 1494 1493 1491 1490
1467 1462 1462 1466 1470 1471 1478 1471 1471 1473 1476 1476 1469 1482 1466 1460 1463 1465 1469 1473 1475 1478 1482 1485 1488 1491 1493 1495 1497 1498 1498 1498 1498 1498 1497 1497 1497 1496 1496 1495 1493 1492 1490 1489
1468 1464 1465 1468 1468 1468 1471 1467 1468 1469 1474 1478 1469 1475 1470 1460 1464 1464 1467 1470 1474 1477 1480 1483 1486 1489 1492 1493 1495 1496 1497 1497 1496 1496 1496 1496 1496 1495 1495 1494 1492 1491 1489 1488
1463 1462 1463 1464 1463 1464 1465 1467 1467 1467 1473 1486 1472 1476 1475 1463 1462 1462 1465 1468 1472 1476 1479 1482 1485 1488 1490 1492 1493 1495 1495 1495 1495 1495 1495 1495 1495 1494 1493 1493 1492 1490 1489 1487
1467 1463 1461 1462 1464 1465 1466 1474 1487 1488 1490 1484 1464 1471 1471 1459 1458 1461 1463 1467 1470 1474 1478 1481 1484 1486 1488 1490 1491 1493 1494 1494 1494 1494 1494 1494 1494 1493 1493 1492 1491 1490 1489 1487
1470 1471 1461 1461 1462 1465 1465 1471 1491 1502 1495 1480 1466 1471 1464 1456 1458 1461 1464 1467 1470 1473 1477 1479 1482 1484 1486 1488 1490 1491 1492 1492 1492 1493 1493 1493 1493 1492 1492 1491 1490 1489 1488 1487
1467 1469 1456 1457 1458 1460 1466 1468 1467 1478 1478 1482 1471 1461 1458 1455 1458 1461 1464 1467 1470 1472 1475 1478 1480 1482 1484 1486 1488 1489 1490 1490 1491 1491 1492 1492 1492 1491 1491 1490 1489 1488 1488 1486
1458 1467 1460 1460 1460 1461 1462 1462 1468 1476 1489 1491 1479 1469 1468 1462 1460 1460 1462 1465 1468 1471 1473 1476 1478 1480 1482 1484 1486 1487 1488 1489 1489 1490 1490 1491 1490 1490 1490 1489 1488 1488 1487 1486
1454 1463 1465 1462 1465 1463 1463 1465 1466 1470 1473 1487 1491 1481 1455 1457 1457 1459 1460 1463 1466 1468 1471 1473 1476 1478 1480 1482 1483 1485 1486 1487 1488 1488 1489 1489 1489 1489 1489 1488 1487 1487 1486 1485
1455 1461 1466 1461 1454 1454 1458 1461 1464 1478 1479 1474 1482 1478 1452 1453 1455 1457 1459 1461 1463 1466 1469 1471 1473 1476 1478 1480 1481 1482 1484 1485 1485 1486 1487 1488 1488 1487 1487 1487 1486 1486 1485 1485
1460 1463 1473 1474 1469 1461 1461 1460 1461 1465 1471 1475 1481 1475 1451 1451 1453 1454 1456 1459 1461 1464 1466 1469 1471 1473 1475 1477 1479 1480 1481 1482 1483 1484 1485 1486 1486 1486 1486 1486 1485 1485 1485 1484
1463 1463 1470 1480 1473 1463 1463 1461 1460 1466 1475 1474 1470 1465 1455 1452 1452 1453 1454 1456 1458 1461 1463 1465 1468 1470 1472 1474 1476 1477 1479 1480 1481 1482 1483 1484 1485 1485 1485 1484 1484 1484 1483 1483
1461 1464 1460 1457 1455 1455 1457 1458 1458 1462 1463 1468 1464 1460 1454 1450 1450 1451 1452 1454 1456 1458 1460 1462 1464 1466 1468 1470 1472 1474 1476 1477 1478 1480 1481 1482 1483 1483 1483 1483 1483 1482 1482 1482
1459 1462 1460 1459 1453 1452 1454 1453 1453 1455 1455 1456 1456 1455 1448 1447 1448 1449 1450 1451 1453 1455 1457 1459 1460 1462 1464 1466 1468 1471 1472 1474 1476 1477 1478 1479 1480 1481 1481 1481 1481 1481 1481 1481
1459 1461 1465 1465 1454 1454 1459 1449 1448 1450 1449 1451 1455 1451 1446 1446 1447 1448 1449 1450 1451 1452 1454 1455 1457 1459 1461 1462 1464 1467 1469 1471 1473 1475 1476 1477 1478 1479 1479 1479 1480 1479 1479 1479
1459 1460 1462 1464 1462 1472 1454 1440 1442 1446 1446 1445 1445 1445 1445 1446 1447 1447 1448 1448 1449 1450 1451 1453 1454 1456 1458 1459 1461 1463 1466 1468 1470 1472 1473 1474 1475 1476 1477 1477 1478 1478 1478 1478
1453 1459 1464 1466 1468 1459 1447 1440 1442 1446 1448 1444 1444 1444 1445 1445 1444 1445 1446 1447 1448 1448 1449 1450 1451 1453 1455 1456 1458 1460 1462 1465 1467 1468 1470 1471 1472 1473 1474 1475 1476 1476 1476 1477
1451 1454 1462 1464 1470 1469 1452 1442 1441 1445 1451 1445 1445 1446 1446 1446 1449 1447 1446 1445 1446 1446 1447 1448 1449 1450 1451 1453 1455 1457 1459 1461 1463 1464 1466 1468 1469 1470 1471 1472 1473 1474 1475 1475
1456 1457 1462 1464 1465 1455 1445 1443 1443 1457 1457 1448 1447 1448 1448 1448 1449 1448 1446 1445 1445 1445 1445 1446 1447 1448 1449 1450 1452 1454 1456 1457 1459 1461 1463 1465 1466 1467 1469 1470 1471 1472 1473 1473
1455 1457 1457 1457 1463 1460 1447 1445 1450 1452 1449 1449 1449 1450 1450 1449 1448 1448 1446 1445 1445 1444 1444 1444 1444 1445 1446 1447 1448 1450 1452 1453 1455 1457 1459 1461 1463 1464 1466 1467 1468 1469 1470 1471
1451 1452 1452 1452 1454 1449 1448 1449 1451 1451 1451 1451 1451 1451 1450 1449 1448 1447 1446 1445 1444 1443 1442 1442 1442 1442 1443 1443 1445 1446 1448 1450 1451 1453 1455 1457 1459 1461 1462 1463 1465 1466 1467 1468
1451 1449 1450 1450 1447 1448 1449 1449 1450 1451 1451 1451 1451 1450 1450 1449 1447 1445 1444 1443 1442 1441 1440 1439 1439 1439 1439 1440 1441 1442 1444 1445 1447 1448 1450 1453 1455 1457 1458 1459 1461 1462 1463 1464
1457 1454 1453 1452 1450 1449 1449 1450 1450 1450 1451 1451 1450 1449 1448 1447 1445 1443 1442 1440 1439 1438 1437 1436 1435 1435 1435 1436 1437 1438 1439 1440 1442 1444 1446 1448 1450 1452 1453 1455 1457 1458 1459 1461
1457 1456 1455 1453 1451 1451 1450 1450 1450 1450 1449 1449 1448 1446 1445 1444 1443 1441 1439 1437 1436 1434 1433 1432 1431 1431 1431 1432 1432 1433 1434 1435 1437 1439 1441 1443 1445 1447 1449 1450 1452 1453 1455 1457